Time,TemperatureF,DewpointF,PressureIn,WindDirection,WindDirectionDegrees,WindSpeedMPH,WindSpeedGustMPH,Humidity,HourlyPrecipIn,Conditions,Clouds,dailyrainin,SoftwareType,DateUTC
2013-04-25 00:58:00,48.2,40.0,30.13,NNE,23,1.0,3.4,73,0.00,,,0.00,WUHU216TE923,2013-04-25 04:58:00,
2013-04-25 01:03:00,48.2,40.0,30.13,NE,45,1.4,3.4,73,0.00,,,0.00,WUHU216TE923,2013-04-25 05:03:00,
2013-04-25 01:08:00,48.0,40.2,30.11,NE,45,1.3,2.8,74,0.00,,,0.00,WUHU216TE923,2013-04-25 05:08:00,
2013-04-25 01:13:00,47.8,40.0,30.11,ESE,113,1.2,2.8,74,0.00,,,0.00,WUHU216TE923,2013-04-25 05:13:00,
2013-04-25 01:18:00,47.7,39.6,30.11,NNE,23,1.8,3.9,73,0.00,,,0.00,WUHU216TE923,2013-04-25 05:18:00,
2013-04-25 01:23:00,47.5,39.4,30.11,NNE,23,1.9,3.9,73,0.00,,,0.00,WUHU216TE923,2013-04-25 05:23:00,
2013-04-25 01:28:00,47.3,39.2,30.11,NNE,23,1.8,1.9,73,0.00,,,0.00,WUHU216TE923,2013-04-25 05:28:00,
2013-04-25 01:33:00,47.1,39.0,30.11,NNE,23,1.8,3.3,73,0.00,,,0.00,WUHU216TE923,2013-04-25 05:33:00,
2013-04-25 01:38:00,47.1,39.0,30.11,SSW,203,1.6,3.3,73,0.00,,,0.00,WUHU216TE923,2013-04-25 05:38:00,
2013-04-25 01:43:00,46.9,38.8,30.11,NNE,23,1.2,1.6,73,0.00,,,0.00,WUHU216TE923,2013-04-25 05:43:00,
2013-04-25 01:48:00,46.9,38.4,30.11,NE,45,0.8,1.4,72,0.00,,,0.00,WUHU216TE923,2013-04-25 05:48:00,
2013-04-25 01:53:00,46.9,38.4,30.11,SE,135,1.2,2.4,72,0.00,,,0.00,WUHU216TE923,2013-04-25 05:53:00,
2013-04-25 01:58:00,46.6,37.8,30.11,NE,45,1.6,2.4,71,0.00,,,0.00,WUHU216TE923,2013-04-25 05:58:00,
2013-04-25 02:03:00,46.6,37.8,30.11,ENE,68,1.8,3.7,71,0.00,,,0.00,WUHU216TE923,2013-04-25 06:03:00,
2013-04-25 02:08:00,46.6,37.8,30.12,NNE,23,1.1,3.7,71,0.00,,,0.00,WUHU216TE923,2013-04-25 06:08:00,
2013-04-25 02:13:00,46.6,37.4,30.12,NNE,23,1.0,1.6,70,0.00,,,0.00,WUHU216TE923,2013-04-25 06:13:00,
2013-04-25 02:18:00,46.2,37.0,30.12,NE,45,0.8,2.8,70,0.00,,,0.00,WUHU216TE923,2013-04-25 06:18:00,
2013-04-25 02:23:00,46.4,37.2,30.12,NNE,23,1.0,2.8,70,0.00,,,0.00,WUHU216TE923,2013-04-25 06:23:00,
2013-04-25 02:28:00,46.2,37.0,30.11,NE,45,0.9,2.2,70,0.00,,,0.00,WUHU216TE923,2013-04-25 06:28:00,
2013-04-25 02:33:00,46.2,37.0,30.11,NE,45,0.8,1.4,70,0.00,,,0.00,WUHU216TE923,2013-04-25 06:33:00,
2013-04-25 02:38:00,46.0,36.9,30.11,NNE,23,0.5,0.8,70,0.00,,,0.00,WUHU216TE923,2013-04-25 06:38:00,
2013-04-25 02:43:00,46.0,36.9,30.11,NNE,23,0.5,0.5,70,0.00,,,0.00,WUHU216TE923,2013-04-25 06:43:00,
2013-04-25 02:48:00,45.9,36.8,30.10,NNE,23,0.6,0.6,70,0.00,,,0.00,WUHU216TE923,2013-04-25 06:48:00,
2013-04-25 02:53:00,45.9,36.8,30.10,North,0,0.5,2.1,70,0.00,,,0.00,WUHU216TE923,2013-04-25 06:53:00,
2013-04-25 02:58:00,45.9,36.8,30.10,NE,45,0.4,2.1,70,0.00,,,0.00,WUHU216TE923,2013-04-25 06:58:00,
2013-04-25 03:03:00,45.7,36.6,30.10,West,270,0.7,2.3,70,0.00,,,0.00,WUHU216TE923,2013-04-25 07:03:00,
2013-04-25 03:08:00,45.5,36.4,30.09,North,0,0.8,2.6,70,0.00,,,0.00,WUHU216TE923,2013-04-25 07:08:00,
2013-04-25 03:13:00,45.5,36.4,30.09,North,0,0.8,2.6,70,0.00,,,0.00,WUHU216TE923,2013-04-25 07:13:00,
2013-04-25 03:18:00,45.5,36.4,30.09,NNE,23,0.6,2.6,70,0.00,,,0.00,WUHU216TE923,2013-04-25 07:18:00,
2013-04-25 03:23:00,45.5,36.4,30.09,WSW,248,0.5,1.5,70,0.00,,,0.00,WUHU216TE923,2013-04-25 07:23:00,
2013-04-25 03:28:00,45.7,36.6,30.11,West,270,0.7,1.0,70,0.00,,,0.00,WUHU216TE923,2013-04-25 07:28:00,
2013-04-25 03:33:00,45.5,36.4,30.11,North,0,0.7,1.8,70,0.00,,,0.00,WUHU216TE923,2013-04-25 07:33:00,
2013-04-25 03:38:00,45.7,36.6,30.11,NNE,23,1.1,2.6,70,0.00,,,0.00,WUHU216TE923,2013-04-25 07:38:00,
2013-04-25 03:43:00,45.5,36.4,30.11,NE,45,1.4,2.6,70,0.00,,,0.00,WUHU216TE923,2013-04-25 07:43:00,
2013-04-25 03:48:00,45.5,36.4,30.11,East,90,1.6,2.3,70,0.00,,,0.00,WUHU216TE923,2013-04-25 07:48:00,
2013-04-25 03:53:00,45.5,36.4,30.11,NNE,23,1.3,1.6,70,0.00,,,0.00,WUHU216TE923,2013-04-25 07:53:00,
2013-04-25 03:58:00,45.5,36.4,30.11,NE,45,0.7,2.7,70,0.00,,,0.00,WUHU216TE923,2013-04-25 07:58:00,
2013-04-25 04:03:00,45.5,36.4,30.11,NNE,23,0.7,2.7,70,0.00,,,0.00,WUHU216TE923,2013-04-25 08:03:00,
2013-04-25 04:08:00,45.3,36.2,30.11,NNE,23,0.7,1.8,70,0.00,,,0.00,WUHU216TE923,2013-04-25 08:08:00,
2013-04-25 04:13:00,45.5,36.4,30.11,ENE,68,0.6,1.8,70,0.00,,,0.00,WUHU216TE923,2013-04-25 08:13:00,
2013-04-25 04:18:00,45.3,36.2,30.11,North,0,1.2,1.2,70,0.00,,,0.00,WUHU216TE923,2013-04-25 08:18:00,
2013-04-25 04:23:00,45.3,36.2,30.11,North,0,0.8,1.2,70,0.00,,,0.00,WUHU216TE923,2013-04-25 08:23:00,
2013-04-25 04:28:00,45.3,36.2,30.11,NNE,23,0.7,1.5,70,0.00,,,0.00,WUHU216TE923,2013-04-25 08:28:00,
2013-04-25 04:33:00,45.1,36.0,30.11,NE,45,1.2,2.4,70,0.00,,,0.00,WUHU216TE923,2013-04-25 08:33:00,
2013-04-25 04:38:00,45.0,35.5,30.11,NNE,23,0.9,2.4,69,0.00,,,0.00,WUHU216TE923,2013-04-25 08:38:00,
2013-04-25 04:43:00,44.6,35.1,30.11,ENE,68,0.5,1.2,69,0.00,,,0.00,WUHU216TE923,2013-04-25 08:43:00,
2013-04-25 04:48:00,44.4,35.0,30.11,NE,45,0.1,1.2,69,0.00,,,0.00,WUHU216TE923,2013-04-25 08:48:00,
2013-04-25 04:53:00,44.2,34.8,30.11,NE,45,0.1,0.1,69,0.00,,,0.00,WUHU216TE923,2013-04-25 08:53:00,
2013-04-25 04:58:00,44.1,34.7,30.11,NE,45,0.2,0.2,69,0.00,,,0.00,WUHU216TE923,2013-04-25 08:58:00,
2013-04-25 05:03:00,43.9,34.5,30.11,NNE,23,0.3,1.4,69,0.00,,,0.00,WUHU216TE923,2013-04-25 09:03:00,
2013-04-25 05:08:00,43.7,34.6,30.11,NNE,23,0.5,1.4,70,0.00,,,0.00,WUHU216TE923,2013-04-25 09:08:00,
2013-04-25 05:13:00,43.5,34.4,30.11,NNE,23,0.7,1.4,70,0.00,,,0.00,WUHU216TE923,2013-04-25 09:13:00,
2013-04-25 05:18:00,43.3,34.3,30.11,NNE,23,0.9,1.9,70,0.00,,,0.00,WUHU216TE923,2013-04-25 09:18:00,
2013-04-25 05:23:00,43.3,34.3,30.11,NNE,23,0.7,1.9,70,0.00,,,0.00,WUHU216TE923,2013-04-25 09:23:00,
2013-04-25 05:28:00,43.0,34.0,30.12,NNE,23,0.5,1.5,70,0.00,,,0.00,WUHU216TE923,2013-04-25 09:28:00,
2013-04-25 05:33:00,42.8,33.8,30.12,NE,45,0.3,1.5,70,0.00,,,0.00,WUHU216TE923,2013-04-25 09:33:00,
2013-04-25 05:38:00,42.6,33.6,30.12,NNE,23,0.1,0.3,70,0.00,,,0.00,WUHU216TE923,2013-04-25 09:38:00,
2013-04-25 05:43:00,42.4,33.4,30.12,NNE,23,0.0,0.1,70,0.00,,,0.00,WUHU216TE923,2013-04-25 09:43:00,
2013-04-25 05:48:00,42.3,33.3,30.11,NNW,338,0.0,0.0,70,0.00,,,0.00,WUHU216TE923,2013-04-25 09:48:00,
2013-04-25 05:53:00,42.1,33.1,30.11,NNE,23,0.0,0.0,70,0.00,,,0.00,WUHU216TE923,2013-04-25 09:53:00,
2013-04-25 05:58:00,41.7,32.7,30.11,NNE,23,0.0,0.0,70,0.00,,,0.00,WUHU216TE923,2013-04-25 09:58:00,
2013-04-25 06:03:00,41.7,33.1,30.11,NNE,23,0.0,0.0,71,0.00,,,0.00,WUHU216TE923,2013-04-25 10:03:00,
2013-04-25 06:08:00,41.5,32.9,30.11,NNE,23,0.0,0.0,71,0.00,,,0.00,WUHU216TE923,2013-04-25 10:08:00,
2013-04-25 06:13:00,41.5,32.9,30.11,NNE,23,0.0,0.0,71,0.00,,,0.00,WUHU216TE923,2013-04-25 10:13:00,
2013-04-25 06:18:00,41.4,32.8,30.11,ENE,68,0.2,0.2,71,0.00,,,0.00,WUHU216TE923,2013-04-25 10:18:00,
2013-04-25 06:23:00,41.4,32.8,30.11,ENE,68,0.0,0.2,71,0.00,,,0.00,WUHU216TE923,2013-04-25 10:23:00,
2013-04-25 06:28:00,41.2,32.6,30.13,NNE,23,0.1,0.1,71,0.00,,,0.00,WUHU216TE923,2013-04-25 10:28:00,
2013-04-25 06:33:00,41.0,32.4,30.13,NNE,23,0.1,0.1,71,0.00,,,0.00,WUHU216TE923,2013-04-25 10:33:00,
2013-04-25 06:38:00,41.0,32.7,30.13,NNE,23,0.0,0.1,72,0.00,,,0.00,WUHU216TE923,2013-04-25 10:38:00,
2013-04-25 06:43:00,40.8,32.5,30.13,NNE,23,0.0,0.0,72,0.00,,,0.00,WUHU216TE923,2013-04-25 10:43:00,
2013-04-25 06:48:00,40.6,32.3,30.13,NNE,23,0.0,0.0,72,0.00,,,0.00,WUHU216TE923,2013-04-25 10:48:00,
2013-04-25 06:53:00,40.5,32.3,30.13,NNE,23,0.0,0.0,72,0.00,,,0.00,WUHU216TE923,2013-04-25 10:53:00,
2013-04-25 06:58:00,40.3,32.1,30.13,NNE,23,0.0,0.0,72,0.00,,,0.00,WUHU216TE923,2013-04-25 10:58:00,
2013-04-25 07:01:00,40.3,32.1,30.13,NNE,23,0.0,0.0,72,0.00,,,0.00,WUHU216TE923,2013-04-25 11:01:00,
2013-04-25 07:03:00,40.3,32.1,30.13,NNE,23,0.0,0.0,72,0.00,,,0.00,WUHU216TE923,2013-04-25 11:03:00,
2013-04-25 07:08:00,40.3,32.1,30.13,NNE,23,0.0,0.0,72,0.00,,,0.00,WUHU216TE923,2013-04-25 11:08:00,
2013-04-25 20:33:00,55.4,25.8,30.19,NNE,23,0.0,0.0,32,0.00,,,0.00,WUHU216TE923,2013-04-26 00:33:00,
2013-04-25 20:38:00,55.4,25.8,30.19,NNE,23,0.0,0.0,32,0.00,,,0.00,WUHU216TE923,2013-04-26 00:38:00,
2013-04-25 20:43:00,54.5,27.9,30.21,NNE,23,0.0,0.0,36,0.00,,,0.00,WUHU216TE923,2013-04-26 00:43:00,
2013-04-25 20:48:00,54.5,27.9,30.21,NNE,23,0.0,0.0,36,0.00,,,0.00,WUHU216TE923,2013-04-26 00:48:00,
2013-04-25 20:53:00,53.8,27.2,30.21,NNE,23,0.0,0.0,36,0.00,,,0.00,WUHU216TE923,2013-04-26 00:53:00,
2013-04-25 20:58:00,53.8,27.2,30.21,NNE,23,0.0,0.0,36,0.00,,,0.00,WUHU216TE923,2013-04-26 00:58:00,
2013-04-25 21:03:00,52.9,28.4,30.22,NNE,23,0.0,0.0,39,0.00,,,0.00,WUHU216TE923,2013-04-26 01:03:00,
2013-04-25 21:08:00,52.9,28.4,30.22,NNE,23,0.0,0.0,39,0.00,,,0.00,WUHU216TE923,2013-04-26 01:08:00,
2013-04-25 21:13:00,52.3,29.1,30.22,NNE,23,0.0,0.0,41,0.00,,,0.00,WUHU216TE923,2013-04-26 01:13:00,
2013-04-25 21:18:00,52.3,29.1,30.22,NNE,23,0.0,0.0,41,0.00,,,0.00,WUHU216TE923,2013-04-26 01:18:00,
2013-04-25 21:23:00,51.6,29.7,30.23,NNE,23,0.0,0.0,43,0.00,,,0.00,WUHU216TE923,2013-04-26 01:23:00,
2013-04-25 21:28:00,51.6,29.7,30.23,NNE,23,0.0,0.0,43,0.00,,,0.00,WUHU216TE923,2013-04-26 01:28:00,
2013-04-25 21:34:00,51.1,29.2,30.23,NNE,23,0.0,0.0,43,0.00,,,0.00,WUHU216TE923,2013-04-26 01:34:00,
2013-04-25 21:39:00,51.1,29.2,30.23,NNE,23,0.0,0.0,43,0.00,,,0.00,WUHU216TE923,2013-04-26 01:39:00,
2013-04-25 21:44:00,50.4,29.7,30.23,East,90,0.0,0.0,45,0.00,,,0.00,WUHU216TE923,2013-04-26 01:44:00,
2013-04-25 21:49:00,50.4,29.7,30.23,East,90,0.0,0.0,45,0.00,,,0.00,WUHU216TE923,2013-04-26 01:49:00,
2013-04-25 21:54:00,50.0,29.9,30.23,East,90,0.0,0.0,46,0.00,,,0.00,WUHU216TE923,2013-04-26 01:54:00,
2013-04-25 21:59:00,50.0,29.9,30.23,East,90,0.0,0.0,46,0.00,,,0.00,WUHU216TE923,2013-04-26 01:59:00,
2013-04-25 22:04:00,49.3,29.8,30.24,East,90,0.0,0.0,47,0.00,,,0.00,WUHU216TE923,2013-04-26 02:04:00,
2013-04-25 22:09:00,49.3,29.8,30.24,East,90,0.0,0.0,47,0.00,,,0.00,WUHU216TE923,2013-04-26 02:09:00,
2013-04-25 22:14:00,48.7,29.8,30.24,East,90,0.0,0.0,48,0.00,,,0.00,WUHU216TE923,2013-04-26 02:14:00,
2013-04-25 22:19:00,48.7,29.8,30.24,East,90,0.0,0.0,48,0.00,,,0.00,WUHU216TE923,2013-04-26 02:19:00,
2013-04-25 22:24:00,48.0,29.7,30.24,East,90,0.0,0.0,49,0.00,,,0.00,WUHU216TE923,2013-04-26 02:24:00,
2013-04-25 22:29:00,48.0,29.7,30.24,East,90,0.0,0.0,49,0.00,,,0.00,WUHU216TE923,2013-04-26 02:29:00,
2013-04-25 22:34:00,47.7,30.4,30.24,East,90,0.0,0.0,51,0.00,,,0.00,WUHU216TE923,2013-04-26 02:34:00,
2013-04-25 22:39:00,47.7,30.4,30.24,East,90,0.0,0.0,51,0.00,,,0.00,WUHU216TE923,2013-04-26 02:39:00,
2013-04-25 22:44:00,47.5,30.2,30.25,East,90,0.0,0.0,51,0.00,,,0.00,WUHU216TE923,2013-04-26 02:44:00,
2013-04-25 22:49:00,47.5,30.2,30.25,East,90,0.0,0.0,51,0.00,,,0.00,WUHU216TE923,2013-04-26 02:49:00,
2013-04-25 22:54:00,46.8,30.1,30.25,East,90,0.0,0.0,52,0.00,,,0.00,WUHU216TE923,2013-04-26 02:54:00,
2013-04-25 22:59:00,46.8,30.1,30.25,East,90,0.0,0.0,52,0.00,,,0.00,WUHU216TE923,2013-04-26 02:59:00,
2013-04-25 23:04:00,46.2,30.0,30.25,East,90,0.0,0.0,53,0.00,,,0.00,WUHU216TE923,2013-04-26 03:04:00,
2013-04-25 23:09:00,46.2,30.0,30.25,East,90,0.0,0.0,53,0.00,,,0.00,WUHU216TE923,2013-04-26 03:09:00,
2013-04-25 23:14:00,45.9,30.2,30.25,East,90,0.0,0.0,54,0.00,,,0.00,WUHU216TE923,2013-04-26 03:14:00,
2013-04-25 23:19:00,45.9,30.2,30.25,East,90,0.0,0.0,54,0.00,,,0.00,WUHU216TE923,2013-04-26 03:19:00,
2013-04-25 23:24:00,45.5,29.8,30.26,East,90,0.0,0.0,54,0.00,,,0.00,WUHU216TE923,2013-04-26 03:24:00,
2013-04-25 23:29:00,45.5,29.8,30.26,East,90,0.0,0.0,54,0.00,,,0.00,WUHU216TE923,2013-04-26 03:29:00,
2013-04-25 23:34:00,45.1,29.5,30.26,East,90,0.0,0.0,54,0.00,,,0.00,WUHU216TE923,2013-04-26 03:34:00,
2013-04-25 23:39:00,45.1,29.5,30.26,East,90,0.0,0.0,54,0.00,,,0.00,WUHU216TE923,2013-04-26 03:39:00,
2013-04-25 23:44:00,45.0,29.8,30.25,East,90,0.0,0.0,55,0.00,,,0.00,WUHU216TE923,2013-04-26 03:44:00,
2013-04-25 23:49:00,45.0,29.8,30.25,East,90,0.0,0.0,55,0.00,,,0.00,WUHU216TE923,2013-04-26 03:49:00,
2013-04-25 23:54:00,44.8,30.1,30.25,East,90,0.0,0.0,56,0.00,,,0.00,WUHU216TE923,2013-04-26 03:54:00,
2013-04-25 23:59:00,44.8,30.1,30.25,East,90,0.0,0.0,56,0.00,,,0.00,WUHU216TE923,2013-04-26 03:59:00,